Location: North Evanston
(42.0634°N, 87.6976°W)
Time: 06:25:21
(UTC+00:00)

Explorer 11/Cluster Stage 4 - Pass Details

Date: 18 May 2026
Orbit: 463 x 1173 km, 28.8° (Epoch: 7 June)

Event Time Altitude Azimuth Distance (km) Brightness Sun altitude
Rises 01:35:04 0° 212° (SSW) 4,035 10.2 -5.4°
Reaches altitude 10° 01:39:21 10° 191° (S) 3,051 9.4 -6.0°
Maximum altitude 01:43:23 15° 159° (SSE) 2,620 8.8 -6.6°
Drops below altitude 10° 01:47:15 10° 127° (SE) 2,908 8.8 -7.2°
Enters shadow 01:47:54 - 122° (ESE) 3,015 8.9 -7.3°
